Location: *
(36.7589°S, 149.9908°W)
Time: 12:56:32
(UTC+00:00)

Daily predictions for brighter satellites

Satellite Brightness Start Highest point End
(mag) Time Altitude Azimuth Time Altitude Azimuth Time Altitude Azimuth
USA 59 Rocket 2.9 12:08:02 10° SW 12:12:35 26° WSW 12:12:35 26° WSW
ALOS 4.4 12:20:31 19° SSW 12:20:31 19° SSW 12:21:51 10° SSW
Cosmos 839 Rocket 4.4 12:20:35 67° NE 12:21:01 69° ENE 12:27:38 10° SE
H-2A R/B 3.1 12:32:51 34° SSW 12:32:51 34° SSW 12:35:39 10° SSW
Cosmos 1980 Rocket 2.4 12:34:33 10° SSW 12:40:15 67° ESE 12:41:07 58° ENE
Cosmos 1697 Rocket 4.4 12:45:43 10° SW 12:47:42 21° SW 12:47:42 21° SW
Kakehashi 4.0 12:53:24 52° N 12:53:35 52° N 12:59:09 10° ENE
Cosmos 1959 Rocket 4.3 12:48:00 10° S 12:54:16 84° W 12:55:01 70° NNW
H-2A R/B 3.8 13:01:22 23° SSW 13:01:22 23° SSW 13:03:09 10° SSW
Cosmos 2366 rocket 3.9 12:52:44 10° SSW 12:58:57 66° W 12:59:12 65° WNW
Cosmos 2341 Rocket 4.0 12:53:50 10° SSW 13:00:11 60° W 13:00:21 60° W
CZ-2D R/B 4.3 13:04:42 12° SW 13:04:42 12° SW 13:05:16 10° SW
NOSS 3-1 (A) 3.6 13:04:29 10° SW 13:08:56 44° WSW 13:08:56 44° WSW
Meteor 2-15 4.3 13:04:33 10° S 13:10:47 80° W 13:12:42 47° N
COSMOS 2406 3.2 13:10:48 58° N 13:11:58 83° ENE 13:17:45 10° SSE
Geosat 4.4 13:11:20 10° SE 13:16:18 56° ENE 13:17:45 41° NNE
CZ-2C R/B 2.7 13:13:33 28° NNE 13:16:19 73° ESE 13:21:31 10° S
Cosmos 1733 Rocket 4.3 13:12:24 10° S 13:16:39 41° E 13:20:15 13° NNE
ADEOS II 4.1 13:20:04 14° SW 13:20:04 14° SW 13:21:08 10° SW
ATLAS 2AS CENTAUR R/B 2.8 13:19:58 45° WNW 13:22:14 68° SW 13:29:30 10° SSE
PAYLOAD A 4.3 13:18:53 14° NNE 13:23:32 73° ESE 13:28:48 10° S
MOZ.5/SAFIR/RUBIN 5/SL-8 3.6 13:19:06 10° S 13:23:48 82° WSW 13:24:25 66° NNW
OAO 1 4.4 13:25:59 54° WNW 13:27:15 76° N 13:32:47 10° E
Cosmos 1503 Rocket 3.8 13:25:51 10° SSW 13:31:05 78° WNW 13:34:37 21° N
Okean 1-7 3.1 13:30:36 45° NNE 13:31:49 71° E 13:36:03 10° SSE
Cosmos 2082 Rocket 3.1 13:32:05 31° WSW 13:32:58 32° WSW 13:38:05 10° S
Cosmos 1763 Rocket 3.9 13:36:09 41° W 13:37:03 44° WSW 13:42:10 10° S
Nadezhda 3 Rocket 4.0 13:35:30 34° NNW 13:38:20 68° W 13:44:37 10° S
Cosmos 2369 3.6 13:34:18 10° SSW 13:40:03 73° WNW 13:45:45 10° NNE
FengYun 1-2 T 4.5 13:36:30 10° NNE 13:42:02 73° ESE 13:47:42 10° S
TRAILBLAZER 4.4 13:44:22 48° NW 13:45:33 81° WSW 13:49:57 10° SSE
Cosmos 468 Rocket 4.0 13:46:33 35° NW 13:48:46 70° WSW 13:54:06 10° SSE
Cosmos 1328 3.4 13:48:19 51° N 13:49:09 87° W 13:52:45 10° S
SL-16 R/B 3.1 13:43:55 10° SSW 13:49:30 52° ESE 13:55:00 10° NE
ARGOS 3.9 13:50:11 31° WNW 13:50:29 31° W 13:55:20 10° SW
SL-08 R/B 4.4 13:45:42 10° S 13:51:58 83° W 13:58:18 10° N
H-2A R/B 2.7 13:50:20 10° S 13:53:45 38° WSW 13:53:52 38° WSW
Meteor 1-24 Rocket 3.9 13:48:46 11° N 13:53:48 67° E 13:59:07 10° SSE
Cosmos 1934 Rocket 4.1 13:47:41 10° S 13:53:51 77° E 13:59:54 10° N
SL-16 R/B 4.3 13:50:45 10° SE 13:56:09 30° E 14:01:28 10° NNE
ATLAS 3B R/B 4.2 13:51:07 10° SSW 13:56:55 36° SE 14:02:59 10° ENE
Gblst 52 Del rocket 4.4 13:54:21 30° WNW 13:57:20 73° SW 14:03:53 10° SE
BREEZE-M DEB (TANK) 3.7 13:56:02 33° WNW 13:57:51 73° SSW 14:07:31 10° ESE
Cosmos 2333 Rocket 3.2 13:53:30 10° SSW 13:59:08 50° ESE 14:04:44 10° NE
H-2A R/B 3.4 13:57:05 10° NNE 14:00:52 76° ESE 14:04:44 10° S
USA 267 3.6 13:55:16 10° SE 14:01:49 62° NE 14:07:02 17° NNW
Lacrosse 5 rocket 1.3 14:02:00 38° W 14:02:59 51° SW 14:06:29 10° SSE
Meteor 2-5 Rocket 3.9 13:57:43 10° N 14:03:23 73° E 14:09:01 10° SSE
Delta 2 Rocket 4.3 14:03:14 24° N 14:04:16 28° NNE 14:07:29 10° E
IRS-1D 3.8 14:05:09 10° NNE 14:10:04 68° ESE 14:15:02 10° S
Cosmos 1703 Rocket 4.0 14:06:30 10° N 14:10:54 65° E 14:15:21 10° SSE
Cosmos 1867 4.4 14:05:49 10° N 14:10:58 47° ENE 14:16:09 10° SE
Cosmos 841 Rocket 3.5 14:06:58 15° NNW 14:11:17 88° ENE 14:16:35 10° SSE
JB-3 4.2 14:11:21 10° SSE 14:15:03 80° ENE 14:18:37 11° N
Cosmos 2322 Rocket 3.2 14:14:58 10° SSW 14:20:35 52° ESE 14:26:08 10° NE
CZ-3 Stage 3 4.4 14:15:28 16° W 14:22:58 67° N 14:59:02 10° ENE
Cosmos 1980 Rocket 3.9 14:20:38 10° WSW 14:22:43 14° W 14:22:43 14° W
NOAA 12 4.1 14:19:19 10° N 14:24:39 81° WNW 14:30:04 10° SSW
Cosmos 2228 Rocket 3.9 14:22:24 19° NW 14:25:05 35° WSW 14:29:20 10° SSW
BlueWalker 3 3.4 14:21:48 10° SSW 14:25:16 37° SE 14:28:42 10° ENE
Cosmos 2219 Rocket 4.3 14:20:59 10° S 14:26:02 31° ESE 14:31:02 10° ENE
Cosmos 372 Rocket 4.0 14:21:17 10° SSW 14:26:28 87° ESE 14:31:33 10° NNE
SEDSat Delta rocket 4.2 14:23:55 18° WNW 14:28:16 51° N 14:34:32 10° E
Cosmos 1898 Rocket 3.8 14:26:00 10° SSW 14:31:15 74° ESE 14:36:28 10° NNE
Cosmos 1939 Rocket 3.8 14:32:35 12° NNW 14:35:21 25° W 14:38:32 10° SW
Cosmos 2278 3.7 14:39:39 10° SSW 14:45:20 65° WNW 14:50:56 10° N
Cosmos 1937 Rocket 3.8 14:40:53 10° SSW 14:46:04 72° ESE 14:51:11 10° NNE
Cosmos 1782 Rocket 4.1 14:47:07 10° S 14:51:30 65° E 14:55:49 10° NNE
Cosmos 1908 Rocket 3.6 14:47:39 10° SSW 14:51:56 56° W 14:56:09 10° N
Cosmos 2360 Rocket 2.3 14:48:19 10° SSW 14:54:03 89° ESE 14:59:43 10° NNE
Meteor 1-28 Rocket 3.9 14:50:57 10° SSE 14:54:14 49° E 14:57:26 10° N
CZ-2C R/B 4.3 14:53:09 10° WNW 14:54:49 11° W 14:56:30 10° WSW
Cosmos 1818 3.5 14:49:43 10° SW 14:55:04 66° WNW 15:00:23 10° NNE
Cosmos 1812 1.4 14:52:58 10° S 14:55:28 87° W 14:57:55 10° N
Cosmos 1833 4.4 14:51:35 10° NW 14:57:06 55° WSW 15:02:39 10° SSE
Sakura Rocket 4.0 14:54:44 10° NW 14:57:58 24° N 15:00:59 10° NE
Tiangong -0.9 14:55:21 10° NW 14:58:21 35° NNE 15:01:23 10° E
Transit 2A Rocket 4.5 14:56:14 10° NNW 15:00:34 78° WSW 15:04:52 10° SSE
Blok-2BL 4.4 14:58:15 10° SSW 15:03:50 69° SE 15:06:07 10° NE
CZ-3 R/B 3.3 14:43:26 10° W 15:04:54 45° NNW 15:11:47 10° NE
